Hutchinson, KS

8:29 PM CDT on September 24, 2017 (GMT -0500)
Hutchinson Municipal

Weather History for KHUT - January, 2014

Change the Weather History Date:

Wednesday, January 29, 2014

  Actual Average Record
Temperature  
Mean Temperature 28 °F -  
Max Temperature 48 °F 40 °F 66 °F (2011)
Min Temperature 9 °F 19 °F 7 °F (2004)
Degree Days  
Heating Degree Days 36    
Moisture  
Dew Point 9 °F    
Average Humidity 54    
Maximum Humidity 88    
Minimum Humidity 22    
Precipitation  
Precipitation 0.00 in - - ()
Sea Level Pressure  
Sea Level Pressure 30.11 in    
Wind  
Wind Speed 7 mph (South)    
Max Wind Speed 24 mph    
Max Gust Speed 34 mph    
Visibility 10 miles    
Events      
Averages and records for this station are not official NWS values.
T = Trace of Precipitation, MM = Missing Value Source: NWS Daily Summary

Daily Weather History Graph

Daily Weather History Graph

Search for Another Location

Airport or City:

Trip Planner

Search our weather history database for the weather conditions in past years. The results will help you decide how hot, cold, wet, or windy it might be!

Date:

Astronomy

Jan. 29, 2014 Rise Set
Actual Time 7:38 AM CST 5:51 PM CST
Civil Twilight 7:10 AM CST 6:19 PM CST
Nautical Twilight 6:38 AM CST 6:50 PM CST
Astronomical Twilight 6:07 AM CST 7:21 PM CST
Moon 6:16 AM CST (1/29) 4:52 PM CST (1/29)
Length of Visible Light 11h 08m
Length of Day
10h 12m
Waning Crescent, 2% of the Moon is Illuminated
Jan 29
Waning Crescent
Jan 30
New
Feb 6
First Quarter
Feb 14
Full
Feb 22
Last Quarter

Hourly Weather History & Observations

Time (CST) Temp. Windchill Dew Point Humidity Pressure Visibility Wind Dir Wind Speed Gust Speed Precip Events Conditions
12:52 AM 12.9 °F - 5.0 °F 71% 30.30 in 10.0 mi Calm Calm - N/A   Clear
1:52 AM 16.0 °F 10.4 °F 7.0 °F 68% 30.27 in 10.0 mi SW 3.5 mph - N/A   Clear
2:52 AM 14.0 °F - 8.1 °F 77% 30.26 in 10.0 mi Calm Calm - N/A   Clear
3:52 AM 16.0 °F - 9.0 °F 74% 30.25 in 10.0 mi Calm Calm - N/A   Clear
4:52 AM 9.0 °F 2.4 °F 6.1 °F 88% 30.24 in 10.0 mi SSE 3.5 mph - N/A   Clear
5:52 AM 12.0 °F - 9.0 °F 88% 30.22 in 10.0 mi Calm Calm - N/A   Clear
6:52 AM 12.9 °F - 8.1 °F 81% 30.23 in 10.0 mi Calm Calm - N/A   Clear
7:52 AM 12.0 °F 4.1 °F 7.0 °F 80% 30.22 in 10.0 mi SE 4.6 mph - N/A   Clear
8:52 AM 19.9 °F 12.1 °F 14.0 °F 78% 30.20 in 10.0 mi SSE 5.8 mph - N/A   Clear
9:52 AM 28.0 °F 17.5 °F 14.0 °F 56% 30.19 in 10.0 mi SSW 12.7 mph - N/A   Clear
10:52 AM 33.1 °F 23.4 °F 12.9 °F 43% 30.16 in 10.0 mi South 13.8 mph - N/A   Clear
11:52 AM 37.9 °F 28.9 °F 12.0 °F 35% 30.13 in 10.0 mi SSW 16.1 mph - N/A   Clear
12:52 PM 42.1 °F 33.1 °F 10.0 °F 27% 30.07 in 10.0 mi South 20.7 mph 26.5 mph N/A   Clear
1:52 PM 45.0 °F 36.2 °F 9.0 °F 23% 30.02 in 10.0 mi SSW 24.2 mph 34.5 mph N/A   Clear
2:52 PM 48.0 °F - 10.0 °F 22% 29.99 in 10.0 mi SSW 18.4 mph 26.5 mph N/A   Clear
8:52 PM 37.9 °F 27.6 °F 7.0 °F 28% 29.88 in 10.0 mi South 20.7 mph 28.8 mph N/A   Clear
9:52 PM 36.0 °F 25.0 °F 7.0 °F 30% 29.85 in 10.0 mi South 20.7 mph 27.6 mph N/A   Clear
10:52 PM 35.1 °F 24.1 °F 7.0 °F 31% 29.83 in 10.0 mi South 19.6 mph - N/A   Clear
11:52 PM 34.0 °F 22.1 °F 8.1 °F 34% 29.78 in 10.0 mi South 21.9 mph - N/A   Clear